This is the latest recevied weather packets stored in our database for station/object OK0EK-11. If no packets are shown the sender has not sent any weather packets the latest 10 day(s).
| Time | Temp. | Humidity | Pressure | Rain* | Wind** | Luminosity | Snow |
|---|---|---|---|---|---|---|---|
| 1777558611 | 6.67° C | 44% | 1027.5 hPa | - | - | - | - |
| 1777558012 | 6.11° C | 44% | 1027.2 hPa | - | - | - | - |
| 1777557413 | 6.11° C | 44% | 1027.3 hPa | - | - | - | - |
| 1777556813 | 6.11° C | 44% | 1027.4 hPa | - | - | - | - |
| 1777556214 | 6.11° C | 45% | 1027.4 hPa | - | - | - | - |
| 1777555615 | 6.11° C | 45% | 1027.7 hPa | - | - | - | - |
| 1777555016 | 6.11° C | 46% | 1027.6 hPa | - | - | - | - |
| 1777554417 | 5.56° C | 46% | 1027.7 hPa | - | - | - | - |
| 1777553818 | 6.11° C | 45% | 1027.8 hPa | - | - | - | - |
| 1777553218 | 6.11° C | 45% | 1027.7 hPa | - | - | - | - |
| 1777552619 | 5.56° C | 46% | 1028.1 hPa | - | - | - | - |
| 1777552020 | 5.56° C | 48% | 1028.1 hPa | - | - | - | - |
| 1777551420 | 5.56° C | 47% | 1027.8 hPa | - | - | - | - |
| 1777550820 | 5° C | 47% | 1028.2 hPa | - | - | - | - |
| 1777550220 | 4.44° C | 49% | 1027.9 hPa | - | - | - | - |
| 1777549621 | 5° C | 48% | 1028.3 hPa | - | - | - | - |
| 1777549021 | 5° C | 48% | 1028.3 hPa | - | - | - | - |
| 1777548422 | 5° C | 49% | 1028.2 hPa | - | - | - | - |
| 1777547822 | 5° C | 49% | 1028 hPa | - | - | - | - |
| 1777547222 | 4.44° C | 51% | 1028.2 hPa | - | - | - | - |
| 1777546623 | 4.44° C | 51% | 1028.1 hPa | - | - | - | - |
| 1777546023 | 4.44° C | 50% | 1028.1 hPa | - | - | - | - |
| 1777545423 | 3.89° C | 52% | 1028.6 hPa | - | - | - | - |
| 1777544823 | 3.89° C | 52% | 1028.4 hPa | - | - | - | - |
| 1777544224 | 3.33° C | 52% | 1028.5 hPa | - | - | - | - |
* Rain since midnight (hover to see other rain measurements)
** Current wind speed in m/s (hover to see current wind gust speed)